Flag for Mexico Weather past 2 weeks in Mexicali, Baja California, Mexico

Now
103 °F

Sunny.


Feels Like: 101 °F
Forecast: 77 / 104 °F
Wind: 21 mph from Southeast

Location: Imperial County Airport

Current Time: Jul 5, 2015 at 6:43:15 PM

Latest Report: Jul 5, 2015 at 5:53 PM


Visibility: 10 mi

Pressure: 29.70 "Hg

Humidity: 19%

Dew point: 53 °F

Location of MexicaliLocation

Historic Weather in Mexicali — Graph

°F

Mexicali temperature yesterday

Maximum temperature yesterday: 109 °F (at 1:53 PM)
Minimum temperature yesterday: 83 °F (at 3:53 AM)
Average temperature yesterday: 96 °F

Past Weeks' High & Low Weather Summary

 TemperatureHumidityPressure
High111 °F (Jun 20, 4:53 PM)79% (Jun 27, 2:53 AM)29.88 "Hg (Jun 27, 2:53 AM)
Low73 °F (Jun 24, 4:53 AM)5% (Jun 22, 3:53 PM)29.61 "Hg (Jul 4, 5:53 PM)
Average93 °F37%29.76 "Hg
* Reported Jun 20 4:53 PM — Jul 5 4:53 PM, Mexicali, Weather by CustomWeather, © 2015

Note: Actual official high and low records may vary slightly from our data, if they occured in-between our weather recording intervals... More about our weather records

Advertising

Mexicali weather history for previous 24 hours

 ConditionsComfort  
Time TempWeatherWind HumidityBarometerVisibility
4:53 PM
Sun, Jul 5
105 °FSunny.24 mph20%29.71 "Hg10 mi
3:53 PM107 °FSunny.18 mph17%29.72 "Hg10 mi
2:53 PM105 °FSunny.18 mph20%29.74 "Hg10 mi
1:53 PM104 °FSunny.16 mph22%29.76 "Hg10 mi
12:53 PM103 °FSunny.N/A28%29.78 "Hg10 mi
11:53 AM98 °FSunny.N/A35%29.80 "Hg10 mi
10:53 AM93 °FSunny.No wind47%29.81 "Hg10 mi
9:53 AM91 °FSunny.No wind54%29.81 "Hg10 mi
8:53 AM88 °FSunny.No wind59%29.81 "Hg10 mi
7:53 AM85 °FSunny.6 mph65%29.80 "Hg10 mi
6:53 AM81 °FSunny.7 mph67%29.79 "Hg10 mi
5:53 AM82 °FClear.5 mph63%29.77 "Hg10 mi
4:53 AM82 °FClear.7 mph63%29.75 "Hg10 mi
3:53 AM83 °FClear.5 mph63%29.73 "Hg10 mi
2:53 AM83 °FClear.5 mph65%29.73 "Hg10 mi
1:53 AM85 °FClear.5 mph61%29.73 "Hg10 mi
12:53 AM89 °FClear.12 mph50%29.72 "Hg10 mi
11:53 PM
Sat, Jul 4
89 °FClear.14 mph53%29.72 "Hg10 mi
10:53 PM89 °FClear.9 mph50%29.72 "Hg10 mi
9:53 PM95 °FClear.10 mph34%29.70 "Hg10 mi
8:53 PM96 °FSunny.9 mph35%29.67 "Hg10 mi
7:53 PM98 °FSunny.15 mph28%29.63 "Hg10 mi
6:53 PM103 °FSunny.18 mph21%29.62 "Hg10 mi
Weather by CustomWeather, © 2015

See weather overviewHow to use our weather pages